Orbital Elements at Epoch 2459200.5 (2020-Dec-17.0) TDB
Reference: JPL 19 (heliocentric ecliptic J2000)
Element | Value | Uncertainty (1-sigma) | Units |
e | .1202554970255379 | 3.3826e-08 | |
a | 2.325291473402781 | 1.2384e-08 | au |
q | 2.045662391539484 | 8.3104e-08 | au |
i | 3.773029011785968 | 5.7953e-06 | deg |
node | 330.2404092413644 | 5.7005e-05 | deg |
peri | 103.3666719046662 | 6.3058e-05 | deg |
M | 303.6188022443616 | 2.8297e-05 | deg |
tp | 2459403.336600143854 (2021-Jul-07.83660014) | 0.00010248 | TDB |
period | 1295.133465739204 3.55 | 1.0346e-05 2.833e-08 | d yr |
n | .277963630408182 | 2.2205e-09 | deg/d |
Q | 2.604920555266078 | 1.3873e-08 | au |
|
| | Orbit Determination Parameters
Additional Information
|